Year,Month,Day,Hour,Minute,Value (Times are PST for windspeed in km/hr)
2007,03,14,00,00,11.30
2007,03,14,00,01,10.90
2007,03,14,00,02,22.20
2007,03,14,00,03,18.40
2007,03,14,00,04,14.90
2007,03,14,00,05,15.70
2007,03,14,00,06,14.80
2007,03,14,00,07,13.20
2007,03,14,00,08,15.40
2007,03,14,00,09,12.50
2007,03,14,00,10,8.30
2007,03,14,00,11,17.60
2007,03,14,00,12,15.00
2007,03,14,00,13,12.10
2007,03,14,00,14,8.00
2007,03,14,00,15,10.30
2007,03,14,00,16,11.80
2007,03,14,00,17,10.10
2007,03,14,00,18,9.70
2007,03,14,00,19,15.10
2007,03,14,00,20,8.70
2007,03,14,00,21,12.20
2007,03,14,00,22,10.30
2007,03,14,00,23,15.00
2007,03,14,00,24,13.70
2007,03,14,00,25,12.10
2007,03,14,00,26,13.90
2007,03,14,00,27,12.00
2007,03,14,00,28,15.70
2007,03,14,00,29,16.10
2007,03,14,00,30,13.40
2007,03,14,00,31,17.20
2007,03,14,00,32,18.60
2007,03,14,00,33,18.40
2007,03,14,00,34,19.90
2007,03,14,00,35,14.30
2007,03,14,00,36,18.50
2007,03,14,00,37,17.70
2007,03,14,00,38,12.40
2007,03,14,00,39,14.00
2007,03,14,00,40,17.50
2007,03,14,00,41,10.40
2007,03,14,00,42,8.20
2007,03,14,00,43,13.70
2007,03,14,00,44,16.70
2007,03,14,00,45,12.70
2007,03,14,00,46,16.90
2007,03,14,00,47,13.00
2007,03,14,00,48,18.60
2007,03,14,00,49,15.00
2007,03,14,00,50,10.60
2007,03,14,00,51,7.70
2007,03,14,00,52,6.40
2007,03,14,00,53,7.80
2007,03,14,00,54,16.10
2007,03,14,00,55,12.90
2007,03,14,00,56,10.80
2007,03,14,00,57,14.70
2007,03,14,00,58,16.60
2007,03,14,00,59,11.10
2007,03,14,01,00,12.50
2007,03,14,01,01,16.80
2007,03,14,01,02,15.30
2007,03,14,01,03,11.10
2007,03,14,01,04,7.80
2007,03,14,01,05,6.40
2007,03,14,01,06,5.90
2007,03,14,01,07,3.20
2007,03,14,01,08,3.20
2007,03,14,01,09,7.50
2007,03,14,01,10,9.00
2007,03,14,01,11,10.80
2007,03,14,01,12,19.70
2007,03,14,01,13,21.90
2007,03,14,01,14,18.30
2007,03,14,01,15,21.70
2007,03,14,01,16,21.90
2007,03,14,01,17,23.40
2007,03,14,01,18,32.10
2007,03,14,01,19,24.70
2007,03,14,01,20,16.10
2007,03,14,01,21,16.10
2007,03,14,01,22,19.70
2007,03,14,01,23,21.20
2007,03,14,01,24,30.10
2007,03,14,01,25,23.50
2007,03,14,01,26,29.80
2007,03,14,01,27,24.20
2007,03,14,01,28,22.80
2007,03,14,01,29,20.80
2007,03,14,01,30,28.50
2007,03,14,01,31,31.10
2007,03,14,01,32,22.10
2007,03,14,01,33,22.60
2007,03,14,01,34,26.00
2007,03,14,01,35,28.80
2007,03,14,01,36,23.60
2007,03,14,01,37,23.30
2007,03,14,01,38,28.50
2007,03,14,01,39,19.20
2007,03,14,01,40,16.00
2007,03,14,01,41,21.10
2007,03,14,01,42,16.00
2007,03,14,01,43,15.40
2007,03,14,01,44,15.90
2007,03,14,01,45,11.60
2007,03,14,01,46,15.20
2007,03,14,01,47,11.10
2007,03,14,01,48,4.80
2007,03,14,01,49,4.80
2007,03,14,01,50,8.80
2007,03,14,01,51,12.40
2007,03,14,01,52,12.10
2007,03,14,01,53,8.20
2007,03,14,01,54,3.00
2007,03,14,01,55,4.50
2007,03,14,01,56,6.30
2007,03,14,01,57,7.30
2007,03,14,01,58,11.90
2007,03,14,01,59,11.40
2007,03,14,02,00,9.20
2007,03,14,02,01,5.40
2007,03,14,02,02,17.00
2007,03,14,02,03,14.90
2007,03,14,02,04,11.20
2007,03,14,02,05,5.20
2007,03,14,02,06,7.80
2007,03,14,02,07,14.60
2007,03,14,02,08,10.70
2007,03,14,02,09,6.60
2007,03,14,02,10,6.70
2007,03,14,02,11,7.90
2007,03,14,02,12,9.70
2007,03,14,02,13,7.60
2007,03,14,02,14,6.20
2007,03,14,02,15,6.40
2007,03,14,02,16,12.50
2007,03,14,02,17,6.80
2007,03,14,02,18,7.60
2007,03,14,02,19,8.50
2007,03,14,02,20,7.10
2007,03,14,02,21,6.60
2007,03,14,02,22,9.10
2007,03,14,02,23,9.80
2007,03,14,02,24,7.40
2007,03,14,02,25,7.40
2007,03,14,02,26,8.70
2007,03,14,02,27,7.40
2007,03,14,02,28,7.10
2007,03,14,02,29,8.70
2007,03,14,02,30,7.10
2007,03,14,02,31,6.10
2007,03,14,02,32,6.90
2007,03,14,02,33,8.40
2007,03,14,02,34,8.80
2007,03,14,02,35,9.80
2007,03,14,02,36,10.40
2007,03,14,02,37,9.00
2007,03,14,02,38,9.10
2007,03,14,02,39,8.70
2007,03,14,02,40,9.10
2007,03,14,02,41,8.90
2007,03,14,02,42,13.90
2007,03,14,02,43,17.40
2007,03,14,02,44,16.10
2007,03,14,02,45,26.00
2007,03,14,02,46,20.20
2007,03,14,02,47,20.20
2007,03,14,02,48,21.10
2007,03,14,02,49,16.40
2007,03,14,02,50,17.80
2007,03,14,02,51,18.80
2007,03,14,02,52,16.20
2007,03,14,02,53,10.20
2007,03,14,02,54,11.20
2007,03,14,02,55,7.50
2007,03,14,02,56,12.10
2007,03,14,02,57,10.60
2007,03,14,02,58,10.80
2007,03,14,02,59,15.40
2007,03,14,03,00,12.40
2007,03,14,03,01,9.90
2007,03,14,03,02,11.40
2007,03,14,03,03,9.40
2007,03,14,03,04,9.10
2007,03,14,03,05,8.10
2007,03,14,03,06,11.50
2007,03,14,03,07,15.30
2007,03,14,03,08,9.50
2007,03,14,03,09,11.60
2007,03,14,03,10,16.40
2007,03,14,03,11,20.30
2007,03,14,03,12,18.60
2007,03,14,03,13,15.60
2007,03,14,03,14,16.00
2007,03,14,03,15,16.00
2007,03,14,03,16,13.70
2007,03,14,03,17,17.80
2007,03,14,03,18,19.10
2007,03,14,03,19,20.60
2007,03,14,03,20,20.80
2007,03,14,03,21,18.60
2007,03,14,03,22,17.80
2007,03,14,03,23,7.90
2007,03,14,03,24,13.80
2007,03,14,03,25,14.90
2007,03,14,03,26,8.20
2007,03,14,03,27,12.00
2007,03,14,03,28,14.80
2007,03,14,03,29,13.60
2007,03,14,03,30,8.80
2007,03,14,03,31,12.10
2007,03,14,03,32,14.50
2007,03,14,03,33,8.00
2007,03,14,03,34,7.80
2007,03,14,03,35,15.00
2007,03,14,03,36,10.30
2007,03,14,03,37,9.70
2007,03,14,03,38,10.60
2007,03,14,03,39,10.90
2007,03,14,03,40,9.90
2007,03,14,03,41,7.50
2007,03,14,03,42,10.50
2007,03,14,03,43,8.10
2007,03,14,03,44,12.50
2007,03,14,03,45,11.80
2007,03,14,03,46,12.80
2007,03,14,03,47,12.90
2007,03,14,03,48,12.90
2007,03,14,03,49,10.90
2007,03,14,03,50,6.80
2007,03,14,03,51,4.60
2007,03,14,03,52,7.80
2007,03,14,03,53,10.70
2007,03,14,03,54,12.50
2007,03,14,03,55,8.80
2007,03,14,03,56,8.20
2007,03,14,03,57,9.20
2007,03,14,03,58,10.00
2007,03,14,03,59,9.30
2007,03,14,04,00,7.60
2007,03,14,04,01,8.50
2007,03,14,04,02,7.20
2007,03,14,04,03,5.70
2007,03,14,04,04,4.80
2007,03,14,04,05,4.60
2007,03,14,04,06,6.90
2007,03,14,04,07,8.30
2007,03,14,04,08,10.00
2007,03,14,04,09,7.40
2007,03,14,04,10,9.40
2007,03,14,04,11,9.60
2007,03,14,04,12,11.30
2007,03,14,04,13,10.60
2007,03,14,04,14,13.50
2007,03,14,04,15,9.90
2007,03,14,04,16,8.90
2007,03,14,04,17,6.50
2007,03,14,04,18,11.60
2007,03,14,04,19,8.70
2007,03,14,04,20,7.40
2007,03,14,04,21,7.80
2007,03,14,04,22,8.10
2007,03,14,04,23,8.10
2007,03,14,04,24,8.20
2007,03,14,04,25,6.70
2007,03,14,04,26,6.70
2007,03,14,04,27,9.20
2007,03,14,04,28,8.30
2007,03,14,04,29,8.10
2007,03,14,04,30,18.00
2007,03,14,04,31,16.90
2007,03,14,04,32,13.30
2007,03,14,04,33,12.30
2007,03,14,04,34,11.10
2007,03,14,04,35,8.50
2007,03,14,04,36,10.10
2007,03,14,04,37,8.20
2007,03,14,04,38,8.80
2007,03,14,04,39,8.80
2007,03,14,04,40,7.00
2007,03,14,04,41,9.10
2007,03,14,04,42,6.50
2007,03,14,04,43,7.40
2007,03,14,04,44,6.00
2007,03,14,04,45,2.10
2007,03,14,04,46,3.90
2007,03,14,04,47,4.20
2007,03,14,04,48,5.50
2007,03,14,04,49,4.80
2007,03,14,04,50,2.70
2007,03,14,04,51,2.60
2007,03,14,04,52,4.90
2007,03,14,04,53,6.00
2007,03,14,04,54,6.00
2007,03,14,04,55,5.50
2007,03,14,04,56,6.70
2007,03,14,04,57,5.00
2007,03,14,04,58,3.60
2007,03,14,04,59,3.20
2007,03,14,05,00,3.00
2007,03,14,05,01,4.10
2007,03,14,05,02,7.50
2007,03,14,05,03,7.40
2007,03,14,05,04,9.90
2007,03,14,05,05,9.70
2007,03,14,05,06,9.10
2007,03,14,05,07,7.80
2007,03,14,05,08,8.30
2007,03,14,05,09,8.00
2007,03,14,05,10,8.30
2007,03,14,05,11,7.30
2007,03,14,05,12,5.90
2007,03,14,05,13,3.60
2007,03,14,05,14,8.70
2007,03,14,05,15,6.20
2007,03,14,05,16,5.10
2007,03,14,05,17,2.10
2007,03,14,05,18,3.10
2007,03,14,05,19,2.90
2007,03,14,05,20,7.10
2007,03,14,05,21,5.40
2007,03,14,05,22,10.80
2007,03,14,05,23,10.20
2007,03,14,05,24,12.10
2007,03,14,05,25,17.10
2007,03,14,05,26,14.90
2007,03,14,05,27,9.20
2007,03,14,05,28,12.80
2007,03,14,05,29,9.90
2007,03,14,05,30,10.00
2007,03,14,05,31,6.40
2007,03,14,05,32,10.10
2007,03,14,05,33,8.30
2007,03,14,05,34,6.30
2007,03,14,05,35,5.80
2007,03,14,05,36,4.30
2007,03,14,05,37,6.10
2007,03,14,05,38,9.40
2007,03,14,05,39,9.40
2007,03,14,05,40,9.30
2007,03,14,05,41,9.00
2007,03,14,05,42,7.90
2007,03,14,05,43,8.30
2007,03,14,05,44,8.50
2007,03,14,05,45,8.80
2007,03,14,05,46,9.00
2007,03,14,05,47,7.30
2007,03,14,05,48,7.50
2007,03,14,05,49,9.50
2007,03,14,05,50,10.60
2007,03,14,05,51,11.60
2007,03,14,05,52,11.90
2007,03,14,05,53,13.30
2007,03,14,05,54,14.30
2007,03,14,05,55,13.20
2007,03,14,05,56,12.60
2007,03,14,05,57,12.40
2007,03,14,05,58,9.70
2007,03,14,05,59,8.80
2007,03,14,06,00,8.60
2007,03,14,06,01,10.40
2007,03,14,06,02,8.10
2007,03,14,06,03,6.70
2007,03,14,06,04,7.10
2007,03,14,06,05,4.50
2007,03,14,06,06,8.30
2007,03,14,06,07,5.60
2007,03,14,06,08,8.10
2007,03,14,06,09,6.80
2007,03,14,06,10,9.40
2007,03,14,06,11,11.40
2007,03,14,06,12,11.30
2007,03,14,06,13,13.90
2007,03,14,06,14,13.30
2007,03,14,06,15,12.00
2007,03,14,06,16,8.30
2007,03,14,06,17,10.50
2007,03,14,06,18,11.30
2007,03,14,06,19,9.80
2007,03,14,06,20,9.60
2007,03,14,06,21,13.00
2007,03,14,06,22,12.00
2007,03,14,06,23,15.70
2007,03,14,06,24,11.70
2007,03,14,06,25,14.60
2007,03,14,06,26,14.30
2007,03,14,06,27,16.20
2007,03,14,06,28,15.50
2007,03,14,06,29,14.80
2007,03,14,06,30,10.80
2007,03,14,06,31,15.30
2007,03,14,06,32,15.40
2007,03,14,06,33,13.50
2007,03,14,06,34,18.90
2007,03,14,06,35,17.90
2007,03,14,06,36,17.20
2007,03,14,06,37,17.70
2007,03,14,06,38,17.00
2007,03,14,06,39,14.60
2007,03,14,06,40,16.30
2007,03,14,06,41,15.00
2007,03,14,06,42,17.50
2007,03,14,06,43,18.20
2007,03,14,06,44,16.40
2007,03,14,06,45,17.50
2007,03,14,06,46,17.00
2007,03,14,06,47,12.90
2007,03,14,06,48,17.10
2007,03,14,06,49,15.70
2007,03,14,06,50,16.30
2007,03,14,06,51,15.20
2007,03,14,06,52,14.50
2007,03,14,06,53,16.50
2007,03,14,06,54,12.70
2007,03,14,06,55,16.10
2007,03,14,06,56,16.50
2007,03,14,06,57,19.10
2007,03,14,06,58,19.00
2007,03,14,06,59,17.20
2007,03,14,07,00,18.00
2007,03,14,07,01,15.50
2007,03,14,07,02,19.20
2007,03,14,07,03,19.00
2007,03,14,07,04,14.40
2007,03,14,07,05,15.50
2007,03,14,07,06,20.00
2007,03,14,07,07,20.20
2007,03,14,07,08,22.50
2007,03,14,07,09,19.20
2007,03,14,07,10,19.20
2007,03,14,07,11,16.80
2007,03,14,07,12,15.50
2007,03,14,07,13,11.30
2007,03,14,07,14,11.10
2007,03,14,07,15,8.70
2007,03,14,07,16,8.40
2007,03,14,07,17,7.70
2007,03,14,07,18,8.20
2007,03,14,07,19,7.40
2007,03,14,07,20,7.80
2007,03,14,07,21,5.20
2007,03,14,07,22,7.50
2007,03,14,07,23,7.10
2007,03,14,07,24,7.40
2007,03,14,07,25,9.20
2007,03,14,07,26,5.70
2007,03,14,07,27,6.20
2007,03,14,07,28,7.10
2007,03,14,07,29,4.00
2007,03,14,07,30,3.40
2007,03,14,07,31,3.20
2007,03,14,07,32,3.20
2007,03,14,07,33,3.30
2007,03,14,07,34,3.10
2007,03,14,07,35,3.10
2007,03,14,07,36,3.60
2007,03,14,07,37,4.20
2007,03,14,07,38,4.40
2007,03,14,07,39,3.60
2007,03,14,07,40,4.90
2007,03,14,07,41,3.40
2007,03,14,07,42,3.10
2007,03,14,07,43,3.70
2007,03,14,07,44,3.50
2007,03,14,07,45,5.80
2007,03,14,07,46,3.90
2007,03,14,07,47,3.50
2007,03,14,07,48,3.80
2007,03,14,07,49,3.60
2007,03,14,07,50,4.90
2007,03,14,07,51,3.10
2007,03,14,07,52,3.60
2007,03,14,07,53,3.50
2007,03,14,07,54,3.50
2007,03,14,07,55,3.40
2007,03,14,07,56,2.40
2007,03,14,07,57,0.70
2007,03,14,07,58,1.30
2007,03,14,07,59,1.00
2007,03,14,08,00,2.00
2007,03,14,08,01,2.00
2007,03,14,08,02,0.90
2007,03,14,08,03,0.00
2007,03,14,08,04,0.40
2007,03,14,08,05,0.00
2007,03,14,08,06,0.10
2007,03,14,08,07,3.20
2007,03,14,08,08,3.10
2007,03,14,08,09,3.30
2007,03,14,08,10,2.10
2007,03,14,08,11,2.70
2007,03,14,08,12,4.00
2007,03,14,08,13,5.50
2007,03,14,08,14,5.60
2007,03,14,08,15,3.70
2007,03,14,08,16,6.00
2007,03,14,08,17,6.40
2007,03,14,08,18,6.30
2007,03,14,08,19,7.00
2007,03,14,08,20,5.10
2007,03,14,08,21,3.00
2007,03,14,08,22,2.40
2007,03,14,08,23,2.00
2007,03,14,08,24,1.00
2007,03,14,08,25,1.30
2007,03,14,08,26,0.50
2007,03,14,08,27,0.00
2007,03,14,08,28,0.00
2007,03,14,08,29,0.10
2007,03,14,08,30,0.00
2007,03,14,08,31,0.00
2007,03,14,08,32,0.00
2007,03,14,08,33,0.00
2007,03,14,08,34,0.30
2007,03,14,08,35,1.30
2007,03,14,08,36,1.10
2007,03,14,08,37,0.00
2007,03,14,08,38,0.60
2007,03,14,08,39,1.20
2007,03,14,08,40,3.30
2007,03,14,08,41,2.20
2007,03,14,08,42,4.50
2007,03,14,08,43,4.30
2007,03,14,08,44,6.00
2007,03,14,08,45,7.10
2007,03,14,08,46,8.60
2007,03,14,08,47,9.20
2007,03,14,08,48,8.30
2007,03,14,08,49,9.30
2007,03,14,08,50,10.00
2007,03,14,08,51,6.10
2007,03,14,08,52,4.80
2007,03,14,08,53,4.80
2007,03,14,08,54,4.80
2007,03,14,08,55,4.80
2007,03,14,08,56,4.80
2007,03,14,08,57,5.80
2007,03,14,08,58,4.80
2007,03,14,08,59,10.10
2007,03,14,09,00,9.60
2007,03,14,09,01,9.00
2007,03,14,09,02,8.00
2007,03,14,09,03,7.70
2007,03,14,09,04,8.50
2007,03,14,09,05,11.10
2007,03,14,09,06,15.20
2007,03,14,09,07,11.50
2007,03,14,09,08,11.50
2007,03,14,09,09,13.00
2007,03,14,09,10,15.30
2007,03,14,09,11,14.40
2007,03,14,09,12,13.40
2007,03,14,09,13,11.10
2007,03,14,09,14,12.60
2007,03,14,09,15,10.30
2007,03,14,09,16,11.50
2007,03,14,09,17,12.90
2007,03,14,09,18,8.10
2007,03,14,09,19,8.30
2007,03,14,09,20,8.40
2007,03,14,09,21,10.10
2007,03,14,09,22,10.70
2007,03,14,09,23,9.10
2007,03,14,09,24,9.50
2007,03,14,09,25,6.30
2007,03,14,09,26,4.50
2007,03,14,09,27,6.20
2007,03,14,09,28,6.40
2007,03,14,09,29,13.40
2007,03,14,09,30,16.80
2007,03,14,09,31,14.30
2007,03,14,09,32,10.80
2007,03,14,09,33,10.40
2007,03,14,09,34,14.30
2007,03,14,09,35,13.10
2007,03,14,09,36,15.60
2007,03,14,09,37,13.50
2007,03,14,09,38,17.10
2007,03,14,09,39,17.70
2007,03,14,09,40,16.50
2007,03,14,09,41,16.20
2007,03,14,09,42,14.60
2007,03,14,09,43,20.50
2007,03,14,09,44,19.10
2007,03,14,09,45,20.10
2007,03,14,09,46,17.20
2007,03,14,09,47,15.80
2007,03,14,09,48,16.20
2007,03,14,09,49,17.50
2007,03,14,09,50,14.50
2007,03,14,09,51,16.70
2007,03,14,09,52,10.70
2007,03,14,09,53,11.10
2007,03,14,09,54,12.30
2007,03,14,09,55,14.60
2007,03,14,09,56,14.80
2007,03,14,09,57,16.10
2007,03,14,09,58,15.70
2007,03,14,09,59,11.60
2007,03,14,10,00,8.00
2007,03,14,10,01,9.40
2007,03,14,10,02,7.40
2007,03,14,10,03,13.50
2007,03,14,10,04,12.30
2007,03,14,10,05,12.20
2007,03,14,10,06,11.30
2007,03,14,10,07,12.70
2007,03,14,10,08,5.60
2007,03,14,10,09,8.50
2007,03,14,10,10,15.90
2007,03,14,10,11,14.00
2007,03,14,10,12,16.80
2007,03,14,10,13,13.70
2007,03,14,10,14,19.70
2007,03,14,10,15,12.50
2007,03,14,10,16,14.90
2007,03,14,10,17,21.00
2007,03,14,10,18,20.90
2007,03,14,10,19,20.90
2007,03,14,10,20,20.90
2007,03,14,10,21,20.90
2007,03,14,10,22,20.90
2007,03,14,10,23,16.00
2007,03,14,10,24,14.20
2007,03,14,10,25,10.50
2007,03,14,10,26,14.10
2007,03,14,10,27,14.10
2007,03,14,10,28,11.50
2007,03,14,10,29,13.30
2007,03,14,10,30,12.30
2007,03,14,10,31,11.40
2007,03,14,10,32,15.10
2007,03,14,10,33,14.70
2007,03,14,10,34,18.00
2007,03,14,10,35,19.10
2007,03,14,10,36,14.30
2007,03,14,10,37,11.60
2007,03,14,10,38,13.80
2007,03,14,10,39,11.00
2007,03,14,10,40,7.10
2007,03,14,10,41,6.90
2007,03,14,10,42,9.50
2007,03,14,10,43,11.30
2007,03,14,10,44,11.30
2007,03,14,10,45,11.30
2007,03,14,10,46,13.00
2007,03,14,10,47,12.60
2007,03,14,10,48,11.20
2007,03,14,10,49,5.30
2007,03,14,10,50,7.40
2007,03,14,10,51,12.20
2007,03,14,10,52,14.50
2007,03,14,10,53,10.10
2007,03,14,10,54,15.20
2007,03,14,10,55,13.90
2007,03,14,10,56,13.30
2007,03,14,10,57,10.00
2007,03,14,10,58,11.80
2007,03,14,10,59,10.00
2007,03,14,11,00,11.10
2007,03,14,11,01,7.90
2007,03,14,11,02,11.80
2007,03,14,11,03,9.40
2007,03,14,11,04,10.70
2007,03,14,11,05,11.30
2007,03,14,11,06,11.30
2007,03,14,11,07,11.30
2007,03,14,11,08,14.70
2007,03,14,11,09,13.90
2007,03,14,11,10,6.70
2007,03,14,11,11,8.20
2007,03,14,11,12,8.50
2007,03,14,11,13,7.90
2007,03,14,11,14,14.80
2007,03,14,11,15,18.30
2007,03,14,11,16,13.20
2007,03,14,11,17,14.20
2007,03,14,11,18,18.30
2007,03,14,11,19,10.50
2007,03,14,11,20,15.10
2007,03,14,11,21,12.70
2007,03,14,11,22,7.40
2007,03,14,11,23,10.10
2007,03,14,11,24,11.60
2007,03,14,11,25,11.30
2007,03,14,11,26,15.10
2007,03,14,11,27,11.30
2007,03,14,11,28,12.10
2007,03,14,11,29,13.20
2007,03,14,11,30,15.10
2007,03,14,11,31,11.50
2007,03,14,11,32,14.20
2007,03,14,11,33,14.60
2007,03,14,11,34,16.20
2007,03,14,11,35,13.10
2007,03,14,11,36,10.40
2007,03,14,11,37,6.60
2007,03,14,11,38,6.20
2007,03,14,11,39,8.60
2007,03,14,11,40,8.10
2007,03,14,11,41,11.30
2007,03,14,11,42,8.60
2007,03,14,11,43,8.10
2007,03,14,11,44,10.00
2007,03,14,11,45,10.10
2007,03,14,11,46,7.90
2007,03,14,11,47,12.70
2007,03,14,11,48,17.10
2007,03,14,11,49,12.40
2007,03,14,11,50,13.00
2007,03,14,11,51,11.10
2007,03,14,11,52,10.00
2007,03,14,11,53,9.10
2007,03,14,11,54,5.20
2007,03,14,11,55,7.90
2007,03,14,11,56,6.90
2007,03,14,11,57,9.30
2007,03,14,11,58,6.00
2007,03,14,11,59,3.80
2007,03,14,12,00,9.60
2007,03,14,12,01,11.90
2007,03,14,12,02,11.50
2007,03,14,12,03,12.40
2007,03,14,12,04,6.40
2007,03,14,12,05,10.70
2007,03,14,12,06,6.70
2007,03,14,12,07,11.80
2007,03,14,12,08,13.70
2007,03,14,12,09,12.60
2007,03,14,12,10,18.10
2007,03,14,12,11,12.90
2007,03,14,12,12,14.30
2007,03,14,12,13,12.90
2007,03,14,12,14,15.70
2007,03,14,12,15,16.10
2007,03,14,12,16,16.10
2007,03,14,12,17,15.50
2007,03,14,12,18,16.20
2007,03,14,12,19,12.90
2007,03,14,12,20,5.70
2007,03,14,12,21,5.90
2007,03,14,12,22,16.70
2007,03,14,12,23,11.90
2007,03,14,12,24,9.10
2007,03,14,12,25,9.70
2007,03,14,12,26,7.40
2007,03,14,12,27,5.50
2007,03,14,12,28,8.00
2007,03,14,12,29,15.90
2007,03,14,12,30,10.90
2007,03,14,12,31,9.80
2007,03,14,12,32,6.90
2007,03,14,12,33,6.30
2007,03,14,12,34,9.50
2007,03,14,12,35,5.40
2007,03,14,12,36,9.10
2007,03,14,12,37,8.30
2007,03,14,12,38,9.00
2007,03,14,12,39,12.50
2007,03,14,12,40,16.80
2007,03,14,12,41,9.70
2007,03,14,12,42,8.50
2007,03,14,12,43,10.20
2007,03,14,12,44,17.40
2007,03,14,12,45,11.10
2007,03,14,12,46,9.60
2007,03,14,12,47,7.40
2007,03,14,12,48,7.70
2007,03,14,12,49,13.70
2007,03,14,12,50,16.40
2007,03,14,12,51,15.90
2007,03,14,12,52,15.00
2007,03,14,12,53,14.20
2007,03,14,12,54,8.50
2007,03,14,12,55,9.00
2007,03,14,12,56,14.00
2007,03,14,12,57,11.90
2007,03,14,12,58,11.30
2007,03,14,12,59,11.30
2007,03,14,13,00,13.50
2007,03,14,13,01,20.20
2007,03,14,13,02,16.40
2007,03,14,13,03,15.10
2007,03,14,13,04,12.20
2007,03,14,13,05,14.20
2007,03,14,13,06,19.20
2007,03,14,13,07,15.00
2007,03,14,13,08,10.40
2007,03,14,13,09,8.40
2007,03,14,13,10,8.10
2007,03,14,13,11,8.10
2007,03,14,13,12,8.10
2007,03,14,13,13,8.50
2007,03,14,13,14,18.60
2007,03,14,13,15,22.80
2007,03,14,13,16,18.80
2007,03,14,13,17,18.50
2007,03,14,13,18,16.00
2007,03,14,13,19,18.60
2007,03,14,13,20,19.00
2007,03,14,13,21,19.90
2007,03,14,13,22,18.50
2007,03,14,13,23,17.60
2007,03,14,13,24,17.80
2007,03,14,13,25,14.50
2007,03,14,13,26,13.60
2007,03,14,13,27,15.90
2007,03,14,13,28,18.90
2007,03,14,13,29,15.50
2007,03,14,13,30,20.30
2007,03,14,13,31,17.90
2007,03,14,13,32,17.50
2007,03,14,13,33,15.40
2007,03,14,13,34,16.50
2007,03,14,13,35,13.30
2007,03,14,13,36,17.00
2007,03,14,13,37,16.70
2007,03,14,13,38,17.60
2007,03,14,13,39,15.90
2007,03,14,13,40,16.60
2007,03,14,13,41,16.00
2007,03,14,13,42,12.60
2007,03,14,13,43,16.80
2007,03,14,13,44,15.50
2007,03,14,13,45,11.40
2007,03,14,13,46,13.20
2007,03,14,13,47,11.50
2007,03,14,13,48,11.10
2007,03,14,13,49,11.50
2007,03,14,13,50,14.00
2007,03,14,13,51,12.40
2007,03,14,13,52,13.10
2007,03,14,13,53,13.30
2007,03,14,13,54,14.70
2007,03,14,13,55,17.50
2007,03,14,13,56,16.10
2007,03,14,13,57,13.50
2007,03,14,13,58,13.20
2007,03,14,13,59,12.40
2007,03,14,14,00,15.80
2007,03,14,14,01,16.60
2007,03,14,14,02,18.20
2007,03,14,14,03,12.50
2007,03,14,14,04,16.00
2007,03,14,14,05,14.00
2007,03,14,14,06,12.20
2007,03,14,14,07,9.20
2007,03,14,14,08,8.10
2007,03,14,14,09,7.90
2007,03,14,14,10,7.80
2007,03,14,14,11,8.60
2007,03,14,14,12,10.80
2007,03,14,14,13,10.40
2007,03,14,14,14,9.80
2007,03,14,14,15,6.90
2007,03,14,14,16,10.00
2007,03,14,14,17,10.90
2007,03,14,14,18,3.20
2007,03,14,14,19,3.20
2007,03,14,14,20,3.20
2007,03,14,14,21,10.70
2007,03,14,14,22,17.20
2007,03,14,14,23,11.70
2007,03,14,14,24,9.20
2007,03,14,14,25,14.30
2007,03,14,14,26,14.90
2007,03,14,14,27,13.70
2007,03,14,14,28,11.40
2007,03,14,14,29,7.40
2007,03,14,14,30,6.80
2007,03,14,14,31,8.10
2007,03,14,14,32,7.10
2007,03,14,14,33,7.10
2007,03,14,14,34,7.40
2007,03,14,14,35,5.50
2007,03,14,14,36,4.90
2007,03,14,14,37,5.80
2007,03,14,14,38,4.30
2007,03,14,14,39,7.00
2007,03,14,14,40,7.60
2007,03,14,14,41,7.30
2007,03,14,14,42,6.50
2007,03,14,14,43,6.70
2007,03,14,14,44,6.40
2007,03,14,14,45,6.90
2007,03,14,14,46,3.90
2007,03,14,14,47,4.90
2007,03,14,14,48,4.40
2007,03,14,14,49,4.50
2007,03,14,14,50,3.70
2007,03,14,14,51,3.50
2007,03,14,14,52,3.10
2007,03,14,14,53,2.60
2007,03,14,14,54,2.90
2007,03,14,14,55,0.20
2007,03,14,14,56,4.40
2007,03,14,14,57,5.20
2007,03,14,14,58,7.40
2007,03,14,14,59,11.30
2007,03,14,15,00,5.20
2007,03,14,15,01,3.60
2007,03,14,15,02,4.70
2007,03,14,15,03,7.50
2007,03,14,15,04,7.10
2007,03,14,15,05,4.90
2007,03,14,15,06,4.30
2007,03,14,15,07,8.30
2007,03,14,15,08,10.40
2007,03,14,15,09,8.90
2007,03,14,15,10,8.30
2007,03,14,15,11,12.90
2007,03,14,15,12,11.50
2007,03,14,15,13,10.20
2007,03,14,15,14,11.30
2007,03,14,15,15,10.90
2007,03,14,15,16,5.90
2007,03,14,15,17,4.80
2007,03,14,15,18,4.80
2007,03,14,15,19,5.20
2007,03,14,15,20,7.60
2007,03,14,15,21,6.80
2007,03,14,15,22,4.80
2007,03,14,15,23,4.80
2007,03,14,15,24,8.80
2007,03,14,15,25,14.00
2007,03,14,15,26,20.90
2007,03,14,15,27,18.80
2007,03,14,15,28,16.90
2007,03,14,15,29,17.70
2007,03,14,15,30,9.70
2007,03,14,15,31,17.90
2007,03,14,15,32,15.70
2007,03,14,15,33,19.50
2007,03,14,15,34,9.40
2007,03,14,15,35,5.00
2007,03,14,15,36,3.20
2007,03,14,15,37,7.20
2007,03,14,15,38,9.80
2007,03,14,15,39,9.20
2007,03,14,15,40,3.70
2007,03,14,15,41,3.60
2007,03,14,15,42,1.80
2007,03,14,15,43,2.30
2007,03,14,15,44,2.70
2007,03,14,15,45,6.10
2007,03,14,15,46,4.80
2007,03,14,15,47,3.80
2007,03,14,15,48,5.70
2007,03,14,15,49,2.30
2007,03,14,15,50,1.80
2007,03,14,15,51,10.80
2007,03,14,15,52,12.40
2007,03,14,15,53,15.40
2007,03,14,15,54,10.90
2007,03,14,15,55,9.60
2007,03,14,15,56,9.00
2007,03,14,15,57,11.30
2007,03,14,15,58,15.30
2007,03,14,15,59,14.90
2007,03,14,16,00,15.30
2007,03,14,16,01,16.90
2007,03,14,16,02,16.10
2007,03,14,16,03,15.20
2007,03,14,16,04,8.70
2007,03,14,16,05,12.20
2007,03,14,16,06,14.70
2007,03,14,16,07,10.60
2007,03,14,16,08,12.20
2007,03,14,16,09,16.90
2007,03,14,16,10,15.30
2007,03,14,16,11,20.10
2007,03,14,16,12,19.30
2007,03,14,16,13,19.20
2007,03,14,16,14,18.40
2007,03,14,16,15,18.10
2007,03,14,16,16,15.90
2007,03,14,16,17,14.00
2007,03,14,16,18,14.20
2007,03,14,16,19,13.60
2007,03,14,16,20,18.30
2007,03,14,16,21,14.30
2007,03,14,16,22,10.00
2007,03,14,16,23,7.70
2007,03,14,16,24,10.30
2007,03,14,16,25,15.60
2007,03,14,16,26,15.60
2007,03,14,16,27,10.30
2007,03,14,16,28,13.10
2007,03,14,16,29,11.50
2007,03,14,16,30,9.60
2007,03,14,16,31,9.70
2007,03,14,16,32,11.50
2007,03,14,16,33,11.50
2007,03,14,16,34,9.80
2007,03,14,16,35,11.80
2007,03,14,16,36,9.90
2007,03,14,16,37,9.40
2007,03,14,16,38,7.10
2007,03,14,16,39,4.80
2007,03,14,16,40,5.00
2007,03,14,16,41,7.40
2007,03,14,16,42,8.00
2007,03,14,16,43,6.50
2007,03,14,16,44,7.60
2007,03,14,16,45,8.10
2007,03,14,16,46,6.10
2007,03,14,16,47,5.30
2007,03,14,16,48,5.70
2007,03,14,16,49,8.50
2007,03,14,16,50,9.50
2007,03,14,16,51,5.70
2007,03,14,16,52,4.40
2007,03,14,16,53,8.30
2007,03,14,16,54,10.10
2007,03,14,16,55,9.30
2007,03,14,16,56,10.50
2007,03,14,16,57,8.50
2007,03,14,16,58,9.60
2007,03,14,16,59,9.60
2007,03,14,17,00,9.20
2007,03,14,17,01,8.50
2007,03,14,17,02,9.40
2007,03,14,17,03,9.30
2007,03,14,17,04,10.60
2007,03,14,17,05,8.80
2007,03,14,17,06,5.10
2007,03,14,17,07,12.20
2007,03,14,17,08,8.50
2007,03,14,17,09,15.10
2007,03,14,17,10,8.70
2007,03,14,17,11,7.90
2007,03,14,17,12,7.10
2007,03,14,17,13,15.30
2007,03,14,17,14,16.10
2007,03,14,17,15,16.10
2007,03,14,17,16,15.70
2007,03,14,17,17,13.20
2007,03,14,17,18,7.80
2007,03,14,17,19,9.20
2007,03,14,17,20,3.60
2007,03,14,17,21,5.50
2007,03,14,17,22,5.90
2007,03,14,17,23,8.80
2007,03,14,17,24,10.00
2007,03,14,17,25,6.10
2007,03,14,17,26,7.30
2007,03,14,17,27,3.60
2007,03,14,17,28,5.20
2007,03,14,17,29,6.70
2007,03,14,17,30,3.20
2007,03,14,17,31,6.10
2007,03,14,17,32,5.00
2007,03,14,17,33,3.90
2007,03,14,17,34,6.00
2007,03,14,17,35,9.10
2007,03,14,17,36,7.50
2007,03,14,17,37,9.10
2007,03,14,17,38,10.80
2007,03,14,17,39,11.50
2007,03,14,17,40,9.60
2007,03,14,17,41,8.50